Regional Weather Roundup
Issued by NWS

Home | Current Version | Previous Version | Text Only | Print | Product List | Glossary Off
Versions: 1 2 3 4 5 6 7 8 9 10 11 12 13 14 15 16 17 18 19 20 21 22 23 24 25 26 27 28 29 30 31 32 33 34 35 36 37 38 39 40 41 42 43 44 45 46 47 48 49

000
ASUS45 KBOU 211707
RWRCO

WEATHER ROUNDUP FOR COLORADO
NATIONAL WEATHER SERVICE DENVER/BOULDER CO
1000 AM MST FRI NOV 21 2014

NOTE: "FAIR" INDICATES FEW OR NO CLOUDS BELOW 12000 FEET WITH NO
SIGNIFICANT WEATHER AND/OR OBSTRUCTIONS TO VISIBILITY.

COZ001>005-013-030-031-211800-
...NORTHWEST COLORADO...

CITY           SKY/WX    TMP DP  RH WIND       PRES   REMARKS
CRAIG          SUNNY     32  22  66 CALM      30.10S
HAYDEN         SUNNY     34  18  51 E7        30.10S WCI  28
MEEKER         SUNNY     37  21  52 CALM      30.10S
MOUNT WERNER   NOT AVBL
STEAMBOAT SPGS SUNNY     29  18  63 CALM      30.10S
WALDEN         MOSUNNY   34  18  51 S15G21    30.05F WCI  24
$$

COZ006>008-011-211800-
...WEST CENTRAL VALLEYS...

CITY           SKY/WX    TMP DP  RH WIND       PRES   REMARKS
GRAND JUNCTION SUNNY     39  20  46 SE9       30.11S
MONTROSE       SUNNY     36  20  52 CALM      30.13S
EAGLE          SUNNY     28  21  74 CALM      30.15F
RIFLE          SUNNY     34  20  56 CALM      30.13F
DELTA          SUNNY     35  19  51 CALM      30.14S
NUCLA          SUNNY     32  25  74 CALM      30.16R
$$

COZ017>023-064>068-211800-
...SOUTHWEST COLORADO...

CITY           SKY/WX    TMP DP  RH WIND       PRES   REMARKS
DURANGO        MOSUNNY   36  20  52 E3        30.11S
CORTEZ         SUNNY     39  23  52 NE3       30.09F
PAGOSA SPRINGS MOSUNNY   36  14  41 CALM      30.12S
TELLURIDE      MOSUNNY   32  17  55 CALM      30.14S
WOLF CREEK PAS MOSUNNY   23  12  63 SW13G21   30.15R WCI  11
$$

COZ009-010-012-014-032>034-037-058>063-211800-
...CENTRAL COLORADO...

CITY           SKY/WX    TMP DP  RH WIND       PRES   REMARKS
ASPEN          SUNNY     31  15  52 CALM      30.10S
BUENA VISTA    SUNNY     37  17  44 CALM      30.07
COPPER MTN     CLOUDY    23  14  68 W12       30.12R WCI  12
BERTHOUD PASS  FLURRIES  14  10  85 N15G23    30.11R WCI  -1
COTTONWOOD PAS SUNNY     34  12  40 W13G25    30.08R WCI  25
GUNNISON       MOSUNNY   18  10  73 E3        30.20S
KREMMLING      SUNNY     30  18  59 CALM      30.14S
LEADVILLE      MOSUNNY   28  13  53 NW13G20   30.09R WCI  17
MONARCH PASS   MOSUNNY   18  14  86 W28       30.20R WCI  -1
SALIDA         SUNNY     38  15  39 N8        30.14S
SUNLIGHT       SUNNY     28  18  64 CALM      30.15R
WILKERSON PASS SUNNY     25  12  58 W10G17    30.09S WCI  15
$$

COZ069>075-211800-
...SAN LUIS VALLEY/SANGRE DE CRISTO MOUNTAINS...

CITY           SKY/WX    TMP DP  RH WIND       PRES   REMARKS
ALAMOSA        MOSUNNY   26  15  63 SW3       30.12S
LA VETA PASS   MOSUNNY   30  14  51 S16G28    30.07R WCI  19
SAGUACHE       MOSUNNY   36  18  48 NW12      30.11S
$$

COZ035-036-038>040-211800-
...NORTHERN COLORADO FRONT RANGE...

CITY           SKY/WX    TMP DP  RH WIND       PRES   REMARKS
DENVER INTL AP MOSUNNY   48  21  34 SW8       29.97S
DMNS CITY PARK   N/A     50  17  26 S7        29.96F
AURORA         MOSUNNY   46  18  32 SW7       29.98S
FRONT RANGE AP NOT AVBL
ERIE MUNI ARPT SUNNY     51  24  34 CALM      29.96S
BOULDER MUN AP SUNNY     46  23  39 N3        29.96R
CENTENNIAL     MOSUNNY   47  19  33 CALM      29.98S
BROOMFIELD     MOSUNNY   50  21  32 SE5       29.97S
FORT COLLINS   SUNNY     43  27  52 CALM      29.98R
LONGMONT       SUNNY     51  25  36 E5        29.97S
$$

COZ041-046-047-076>085-087-088-211800-
...PIKES PEAK/PALMER DIVIDE AND SOUTHERN FOOTHILLS...

CITY           SKY/WX    TMP DP  RH WIND       PRES   REMARKS
COLO. SPRINGS  MOSUNNY   52  14  22 N7        29.99S
A. F. ACADEMY  SUNNY     48  11  22 N5        29.98F
ELLICOTT       LGT RAIN  48  16  27 N7        29.97F
FALCON         NOT AVBL
FORT CARSON    SUNNY     47  20  34 S1        29.98S
LIMON          SUNNY     46  22  38 N3        29.97S
MONUMENT HILL  SUNNY     45  12  26 N5        29.99S
TRINIDAD       SUNNY     45  23  42 CALM      29.99F
$$

COZ042>045-048>051-090-091-211800-
...NORTHEAST COLORADO...

CITY           SKY/WX    TMP DP  RH WIND       PRES   REMARKS
GREELEY ARPT   SUNNY     39  25  56 CALM      29.98S
AKRON          MOSUNNY   44  24  45 W10       29.95S
BURLINGTON     SUNNY     46  29  51 S16       29.98F
WRAY           PTSUNNY   47  29  50 S6        29.97F
STERLING       PTSUNNY   41  30  65 W5        29.96F
HOLYOKE        PTSUNNY   46  28  49 S3        29.96F
FORT MORGAN    MOSUNNY   47  20  34 W7        29.97F
$$

COZ086-089-092>099-211800-
...SOUTHEAST COLORADO...

CITY           SKY/WX    TMP DP  RH WIND       PRES   REMARKS
PUEBLO         SUNNY     39  27  62 CALM      29.99S
LA JUNTA       SUNNY     38  29  70 W6        29.99F
LAMAR          SUNNY     39  29  67 VRB5      30.00S
SPRINGFIELD      N/A     47  29  49 VRB3      29.99S
$$



USA.gov is the U.S. government's official web portal to all federal, state and local government web resources and services.